METAR Formatted Surface Weather Observation
Issued by NWS

Home | Current Version | Previous Version | Text Only | Print | Product List | Glossary On
Versions: 1 2 3 4 5 6 7 8 9 10 11 12 13 14 15 16 17 18 19 20 21 22 23 24 25 26 27 28 29 30 31 32 33 34 35 36 37 38 39 40 41 42 43
000
SAUS45 KTWC 280552
MTRSAD
METAR KSAD 280551Z AUTO 33010KT 10SM -RA CLR 27/M06 A2990 RMK AO2
RAB32 SLP060 P0000 60000 T02721061 10400 20261 51021



USA.gov is the U.S. government's official web portal to all federal, state and local government web resources and services.